Weather History for KFHU - November, 2010

Change the Weather History Date:

Monday, November 15, 2010

  Actual Average Record
Temperature  
Mean Temperature 48 °F -  
Max Temperature 62 °F 66 °F 79 °F (1989)
Min Temperature 35 °F 44 °F 25 °F (1985)
Degree Days  
Heating Degree Days 16    
Moisture  
Dew Point 23 °F    
Average Humidity 35    
Maximum Humidity 46    
Minimum Humidity 26    
Precipitation  
Precipitation 0.00 in - - ()
Sea Level Pressure  
Sea Level Pressure 29.94 in    
Wind  
Wind Speed 12 mph (WNW)    
Max Wind Speed 25 mph    
Max Gust Speed 36 mph    
Visibility 10 miles    
Events      
Averages and records for this station are not official NWS values.
T = Trace of Precipitation, MM = Missing Value Source: NWS Daily Summary

Daily Weather History Graph

Daily Weather History Graph

Search for Another Location

Airport or City:

Trip Planner

Search our weather history database for the weather conditions in past years. The results will help you decide how hot, cold, wet, or windy it might be!

Date:

Astronomy

Nov. 15, 2010 Rise Set
Actual Time 6:49 AM MST 5:22 PM MST
Civil Twilight 6:23 AM MST 5:48 PM MST
Nautical Twilight 5:54 AM MST 6:17 PM MST
Astronomical Twilight 5:25 AM MST 6:46 PM MST
Moon 1:48 PM MST (11/15) 1:18 AM MST (11/15)
Length of Visible Light 11h 24m
Length of Day
10h 32m
Waxing Gibbous, 69% of the Moon is Illuminated
Nov 15
Waxing Gibbous
Nov 21
Full
Nov 28
Last Quarter
Dec 5
New
Dec 13
First Quarter

Hourly Weather History & Observations

Time (MST) Temp. Windchill Dew Point Humidity Pressure Visibility Wind Dir Wind Speed Gust Speed Precip Events Conditions
12:56 AM 43.0 °F 37.7 °F 18.0 °F 37% 29.87 in 10.0 mi WNW 9.2 mph - N/A   Clear
1:56 AM 41.0 °F 33.5 °F 15.1 °F 35% 29.88 in 10.0 mi West 13.8 mph - N/A   Clear
2:56 AM 39.9 °F 32.9 °F 15.1 °F 36% 29.90 in 10.0 mi WNW 11.5 mph - N/A   Clear
3:56 AM 37.9 °F 32.7 °F 15.1 °F 39% 29.91 in 10.0 mi WNW 6.9 mph - N/A   Clear
4:56 AM 35.1 °F 29.3 °F 15.1 °F 44% 29.92 in 10.0 mi West 6.9 mph - N/A   Clear
5:55 AM 35.6 °F 32.8 °F 14.0 °F 41% 29.94 in 10.0 mi Variable 3.5 mph - N/A   Clear
6:55 AM 42.8 °F 38.0 °F 19.4 °F 39% 29.92 in 50.0 mi WNW 8.1 mph - N/A   Clear
7:55 AM 48.2 °F - 21.2 °F 34% 29.92 in 50.0 mi NNW 8.1 mph - N/A   Clear
8:55 AM 53.6 °F - 23.0 °F 30% 29.95 in 50.0 mi West 12.7 mph - N/A   Clear
9:55 AM 55.4 °F - 23.0 °F 29% 29.94 in 50.0 mi WNW 13.8 mph - N/A   Clear
10:55 AM 59.0 °F - 24.8 °F 27% 29.95 in 50.0 mi WNW 18.4 mph 29.9 mph N/A   Clear
11:55 AM 60.8 °F - 26.6 °F 27% 29.93 in 50.0 mi NW 19.6 mph 33.4 mph N/A   Clear
12:55 PM 60.8 °F - 26.6 °F 27% 29.91 in 50.0 mi WNW 23.0 mph 35.7 mph N/A   Clear
1:55 PM 62.6 °F - 26.6 °F 26% 29.89 in 50.0 mi WNW 25.3 mph 33.4 mph N/A   Clear
2:55 PM 62.6 °F - 28.4 °F 27% 29.89 in 50.0 mi WNW 25.3 mph 33.4 mph N/A   Clear
3:55 PM 60.8 °F - 28.4 °F 29% 29.92 in 50.0 mi WNW 24.2 mph 29.9 mph N/A   Clear
4:55 PM 57.2 °F - 28.4 °F 33% 29.93 in 50.0 mi WNW 23.0 mph - N/A   Clear
5:55 PM 55.4 °F - 28.4 °F 36% 29.98 in 35.0 mi NW 5.8 mph - N/A   Clear
6:55 PM 53.6 °F - 28.4 °F 38% 29.99 in 10.0 mi WNW 12.7 mph - N/A   Clear
7:55 PM 50.0 °F - 28.4 °F 43% 30.00 in 10.0 mi West 10.4 mph - N/A   Clear
8:55 PM 48.2 °F - 28.4 °F 46% 30.01 in 10.0 mi West 9.2 mph - N/A   Clear
9:55 PM 48.2 °F - 28.4 °F 46% 30.04 in 10.0 mi West 8.1 mph - N/A   Clear
11:56 PM 48.9 °F - 26.1 °F 41% 30.01 in 10.0 mi West 10.4 mph - N/A   Clear